Terug naar catalogus

COSMOS 422

ActiefMilitairLEO
NORAD 5238·PAYLOAD·🇷🇺 Russia

Gelanceerd May 22, 1971 vanaf Plesetsk Cosmodrome

Loading…

Volgende Passages (komende 24 uur)

TLE

VersSource: Space-Track

Epoch: Sep 14, 2026, 08:07 UTC

1 05238U 71046A   26257.33828567  .00000000  00000-0  24328-4 0  9993
2 05238  74.0211  26.2180 0015155 339.0632  49.7858 13.72299513769710

Volg COSMOS 422 in realtime met AllMySat

Download on the App Store